FENGYUN 1C DEB

Satellite information

Favourite Embed

Satellite Type and Status

DEBRISIN ORBIT

Key statistics

Satellite FENGYUN 1C DEB at a glance.

Uptime

9662

Days in orbit

Revolutions

≈ 14.1

Per day

Orbit

SSO

Sun Synchronous Orbit

Inclination

98.7

Latest

Satellite identification and parameters

Extended collection of information and parameters for FENGYUN 1C DEB.

Object identification

Identified? True

Debris? True

Object name: FENGYUN 1C DEB

International designator: 1999-025BCL

Object number (NORAD): 30994

Object ID (CCSDS): 30994

Country: PEOPLES REPUBLIC OF CHINA (PRC)

Current information (Y/N): Y

RCS size: SMALL

Orbital parameters

Period: 102.003 minutes

Inclination: 98.703 deg

SMA: 7231.614 km

Apoapsis: 865.974 km

Periapsis: 840.983 km

RAAN: 303.0258 deg

Eccentricy: 0.0017279

Argument of periapsis: 334.0314 deg

Mean anomaly: 25.9989 deg

Mean motion: 14.11724448 rev/day

Mean motion (dot): 0.0000046 rev/day2

B* drag term: 0.00027577 1/REarth

Two-line elements (TLE)

Creation date: Oct. 20, 2025, 6:46 a.m.

Reference frame: TEME

Reference center: EARTH

Epoch: Oct. 19, 2025, 11:07 p.m. UTC

TLE line 0: 0 FENGYUN 1C DEB

TLE line 1: 1 30994U 99025BCL 25292.96336319 .00000460 00000-0 27577-3 0 9991

TLE line 2: 2 30994 98.7030 303.0258 0017279 334.0314 25.9989 14.11724448958267

Live tracking on map

Real-time ground track for satellite FENGYUN 1C DEB.

In-orbit conjunctions

A list of the most updated potential collisions computed for object FENGYUN 1C DEB.

Target Orbit TCA Probability of collision Miss distance Type
FENGYUN 1C DEB SSO 2025-10-16 19:48:51 0.0001332864 187.0 (m) DEBRIS
CZ-6A DEB SSO 2025-03-30 04:57:12 0.0001358812 443.0 (m) DEBRIS

Associated space launch

Chinese polar orbiting meteorological satellite

FENGYUN 1C DEB was lifted into orbit during the mission ‘Long March 4B | Feng Yun 1C’, on board a Long March 4B space rocket.

The launch took place on May 10, 1999, 1:33 a.m. from Launch Complex 7.

For more information about the launch, click the button.

Launch to space Long March 4B | Feng Yun 1C
Long March 4B | Feng Yun 1C

Agency: N/A

Status: Launch Successful

Launch date: May 10, 1999, 1:33 a.m. UTC

Rocket: Long March 4B

Launch pad: Launch Complex 7

Location: Taiyuan Satellite Launch Center, People's Republic of China

...

Latest news about this satellite

There are no fresh news available about this satellite. Check back as we update our databases every day.


Newsletter sign-up

Weekly statistics, charts and insights to help you stay on top of the space industry.